| time (UTC) | temp F | wind direction | speed knots | gust knots | rain 1hr in | rain 24hr in | rain mn in | humidity % | barometer mb |
| 20260507122640 | 82 | 57 | 1.7 | 1.7 | 0.00 | 0.12 | 0.00 | 85 | 1009.4 |
| 20260507121529 | 82 | 14 | 1.7 | 3.5 | 0.00 | 0.13 | 0.00 | 85 | 1009.6 |
| 20260507120933 | 81 | 96 | 0.9 | 1.7 | 0.00 | 0.12 | 0.00 | 87 | 1009.3 |
| 20260507120533 | 80 | 354 | 1.7 | 1.7 | 0.00 | 0.12 | 0.00 | 87 | 1009.0 |
| 20260507120527 | 81 | 350 | 0.9 | 1.7 | 0.00 | 0.13 | 0.00 | 87 | 1009.4 |
| 20260507120333 | 80 | 318 | 0.9 | 1.7 | 0.00 | 0.12 | 0.00 | 88 | 1009.0 |
| 20260507120046 | 80 | 324 | 1.7 | 3.5 | 0.00 | 0.13 | 0.00 | 88 | 1009.4 |
| 20260507115023 | 80 | 333 | 3.5 | 5.2 | 0.00 | 0.13 | 0.00 | 89 | 1009.3 |
| 20260507114431 | 79 | 325 | 4.3 | 4.3 | 0.00 | 0.12 | 0.00 | 89 | 1008.9 |
| 20260507114041 | 79 | 342 | 2.6 | 4.3 | 0.00 | 0.13 | 0.00 | 90 | 1009.2 |
| 20260507113358 | 78 | 343 | 2.6 | 3.5 | 0.00 | 0.12 | 0.00 | 90 | 1008.8 |
| 20260507113039 | 78 | 339 | 2.6 | 3.5 | 0.00 | 0.13 | 0.00 | 91 | 1009.1 |
| 20260507112325 | 78 | 344 | 1.7 | 1.7 | 0.00 | 0.12 | 0.00 | 92 | 1008.6 |
| 20260507112016 | 78 | 330 | 2.6 | 3.5 | 0.00 | 0.13 | 0.00 | 92 | 1008.9 |
| 20260507111252 | 78 | 314 | 1.7 | 1.7 | 0.00 | 0.12 | 0.00 | 92 | 1008.5 |
| 20260507111034 | 78 | 331 | 2.6 | 4.3 | 0.00 | 0.13 | 0.00 | 93 | 1008.8 |
| 20260507110219 | 78 | 335 | 2.6 | 2.6 | 0.00 | 0.12 | 0.00 | 92 | 1008.5 |
| 20260507110031 | 78 | 341 | 2.6 | 4.3 | 0.00 | 0.13 | 0.00 | 92 | 1008.7 |
| 20260507105146 | 78 | 336 | 1.7 | 3.5 | 0.00 | 0.12 | 0.00 | 93 | 1008.2 |
| 20260507105029 | 78 | 343 | 2.6 | 4.3 | 0.00 | 0.13 | 0.00 | 93 | 1008.5 |
| 20260507104113 | 78 | 330 | 3.5 | 3.5 | 0.00 | 0.12 | 0.00 | 93 | 1008.2 |
| 20260507104027 | 78 | 349 | 2.6 | 4.3 | 0.00 | 0.13 | 0.00 | 93 | 1008.4 |
| 20260507103024 | 78 | 341 | 3.5 | 5.2 | 0.00 | 0.13 | 0.00 | 94 | 1008.4 |
| 20260507102023 | 78 | 349 | 1.7 | 2.6 | 0.00 | 0.13 | 0.00 | 95 | 1008.5 |
| 20260507101019 | 78 | 343 | 1.7 | 3.5 | 0.00 | 0.13 | 0.00 | 95 | 1008.5 |
| 20260507100934 | 77 | 334 | 1.7 | 2.6 | 0.00 | 0.12 | 0.00 | 95 | 1008.4 |
| 20260507100017 | 78 | 340 | 2.6 | 3.5 | 0.00 | 0.13 | 0.00 | 95 | 1008.4 |
| 20260507095901 | 77 | 349 | 1.7 | 2.6 | 0.00 | 0.12 | 0.00 | 95 | 1008.1 |
| 20260507095035 | 78 | 17 | 1.7 | 3.5 | 0.00 | 0.13 | 0.00 | 95 | 1008.3 |
| 20260507094828 | 77 | 354 | 0.9 | 1.7 | 0.00 | 0.12 | 0.00 | 95 | 1008.0 |
| 20260507094032 | 78 | 353 | 2.6 | 3.5 | 0.00 | 0.13 | 0.00 | 94 | 1008.3 |
| 20260507093755 | 77 | 346 | 1.7 | 2.6 | 0.00 | 0.12 | 0.00 | 94 | 1007.9 |
| 20260507093050 | 78 | 350 | 2.6 | 3.5 | 0.00 | 0.13 | 0.00 | 95 | 1008.2 |
| 20260507092722 | 78 | 348 | 1.7 | 2.6 | 0.00 | 0.12 | 0.00 | 95 | 1007.9 |
| 20260507092028 | 78 | 345 | 2.6 | 4.3 | 0.00 | 0.13 | 0.00 | 95 | 1008.3 |
| 20260507091025 | 78 | 335 | 3.5 | 4.3 | 0.00 | 0.13 | 0.00 | 96 | 1008.3 |
| 20260507090617 | 77 | 347 | 2.6 | 3.5 | 0.00 | 0.12 | 0.00 | 96 | 1008.0 |
| 20260507090043 | 78 | 9 | 1.7 | 2.6 | 0.00 | 0.13 | 0.00 | 97 | 1008.3 |
| 20260507085543 | 77 | 326 | 1.7 | 1.7 | 0.00 | 0.12 | 0.00 | 97 | 1007.9 |
| 20260507085020 | 78 | 352 | 0.9 | 2.6 | 0.00 | 0.13 | 0.00 | 97 | 1008.5 |
| 20260507084510 | 77 | 31 | 0.9 | 2.6 | 0.00 | 0.12 | 0.00 | 97 | 1008.3 |
| 20260507084039 | 78 | 105 | 0.9 | 1.7 | 0.00 | 0.13 | 0.00 | 97 | 1008.4 |
| 20260507083437 | 77 | 0 | 0.0 | 0.9 | 0.00 | 0.12 | 0.00 | 97 | 1008.1 |
| 20260507083036 | 78 | 19 | 0.9 | 1.7 | 0.00 | 0.13 | 0.00 | 97 | 1008.6 |
| 20260507082404 | 78 | 0 | 0.0 | 0.0 | 0.00 | 0.12 | 0.00 | 97 | 1008.2 |
| 20260507082054 | 78 | 1 | 0.9 | 1.7 | 0.00 | 0.13 | 0.00 | 97 | 1008.5 |
| 20260507081331 | 78 | 0 | 0.0 | 0.9 | 0.00 | 0.12 | 0.00 | 97 | 1008.1 |
| 20260507081031 | 78 | 13 | 0.0 | 1.7 | 0.00 | 0.13 | 0.00 | 97 | 1008.6 |
| 20260507080258 | 78 | 0 | 0.0 | 0.0 | 0.00 | 0.12 | 0.00 | 96 | 1008.4 |
| 20260507080028 | 78 | 350 | 0.0 | 1.7 | 0.00 | 0.13 | 0.00 | 96 | 1008.6 |
| 20260507075225 | 78 | 32 | 0.9 | 1.7 | 0.00 | 0.12 | 0.00 | 96 | 1008.6 |
| 20260507075026 | 78 | 6 | 0.9 | 2.6 | 0.00 | 0.13 | 0.00 | 96 | 1008.7 |
| 20260507074152 | 78 | 332 | 0.9 | 0.9 | 0.00 | 0.12 | 0.00 | 96 | 1008.5 |
| 20260507074024 | 78 | 356 | 0.9 | 1.7 | 0.00 | 0.13 | 0.00 | 96 | 1008.8 |
| 20260507073119 | 78 | 0 | 0.0 | 0.9 | 0.00 | 0.12 | 0.00 | 96 | 1008.7 |
| 20260507073022 | 78 | 53 | 1.7 | 2.6 | 0.00 | 0.13 | 0.00 | 96 | 1008.9 |
| 20260507072046 | 78 | 28 | 0.9 | 1.7 | 0.00 | 0.12 | 0.00 | 95 | 1008.8 |
| 20260507072019 | 78 | 3 | 0.9 | 1.7 | 0.00 | 0.13 | 0.00 | 95 | 1009.0 |
| 20260507071037 | 78 | 131 | 0.9 | 2.6 | 0.00 | 0.13 | 0.00 | 95 | 1009.1 |
| 20260507071013 | 78 | 0 | 0.0 | 0.9 | 0.00 | 0.12 | 0.00 | 95 | 1008.7 |
| 20260507070035 | 78 | 33 | 0.9 | 1.7 | 0.00 | 0.13 | 0.00 | 95 | 1009.4 |
| 20260507065940 | 78 | 0 | 0.0 | 0.9 | 0.00 | 0.12 | 0.00 | 95 | 1009.1 |
| 20260507065032 | 78 | 8 | 0.9 | 2.6 | 0.00 | 0.13 | 0.00 | 94 | 1009.4 |
| 20260507064029 | 79 | 5 | 0.9 | 2.6 | 0.00 | 0.13 | 0.00 | 93 | 1009.5 |
| 20260507063027 | 79 | 355 | 0.9 | 1.7 | 0.00 | 0.13 | 0.00 | 93 | 1009.7 |
| 20260507062801 | 78 | 358 | 0.9 | 1.7 | 0.00 | 0.12 | 0.00 | 93 | 1009.4 |
| 20260507062024 | 79 | 337 | 1.7 | 4.3 | 0.00 | 0.13 | 0.00 | 93 | 1009.5 |
| 20260507061728 | 78 | 337 | 0.9 | 1.7 | 0.00 | 0.12 | 0.00 | 93 | 1009.1 |
| 20260507061022 | 79 | 341 | 2.6 | 4.3 | 0.00 | 0.13 | 0.00 | 93 | 1009.6 |
| 20260507060655 | 78 | 335 | 3.5 | 3.5 | 0.00 | 0.12 | 0.00 | 93 | 1009.3 |
| 20260507060020 | 79 | 331 | 0.9 | 2.6 | 0.00 | 0.13 | 0.00 | 93 | 1009.8 |
| 20260507055622 | 78 | 346 | 0.9 | 0.9 | 0.00 | 0.12 | 0.00 | 92 | 1009.7 |
| 20260507055018 | 79 | 325 | 2.6 | 3.5 | 0.00 | 0.13 | 0.00 | 92 | 1009.9 |
| 20260507054549 | 78 | 335 | 2.6 | 3.5 | 0.00 | 0.12 | 0.00 | 92 | 1009.5 |
| 20260507054036 | 79 | 333 | 3.5 | 5.2 | 0.00 | 0.13 | 0.00 | 92 | 1010.0 |
| 20260507053516 | 78 | 348 | 3.5 | 3.5 | 0.00 | 0.12 | 0.00 | 93 | 1009.7 |
| 20260507053134 | 79 | 338 | 2.6 | 4.3 | 0.00 | 0.13 | 0.00 | 92 | 1010.0 |
| 20260507052443 | 78 | 316 | 1.7 | 1.7 | 0.00 | 0.12 | 0.00 | 92 | 1009.9 |
| 20260507052051 | 79 | 342 | 2.6 | 4.3 | 0.00 | 0.13 | 0.00 | 92 | 1010.0 |
| 20260507051410 | 78 | 336 | 1.7 | 2.6 | 0.00 | 0.12 | 0.00 | 93 | 1009.8 |
| 20260507051028 | 78 | 347 | 1.7 | 2.6 | 0.00 | 0.13 | 0.00 | 93 | 1010.1 |
| 20260507050337 | 78 | 5 | 0.9 | 1.7 | 0.00 | 0.12 | 0.00 | 93 | 1009.8 |
| 20260507050026 | 78 | 359 | 1.7 | 3.5 | 0.00 | 0.13 | 0.13 | 94 | 1010.0 |
| 20260507045306 | 78 | 53 | 0.9 | 1.7 | 0.00 | 0.12 | 0.12 | 94 | 1009.7 |
| 20260507045024 | 79 | 359 | 1.7 | 2.6 | 0.00 | 0.13 | 0.13 | 94 | 1010.1 |
| 20260507044231 | 78 | 33 | 0.9 | 1.7 | 0.00 | 0.12 | 0.12 | 93 | 1009.9 |
| 20260507044021 | 79 | 359 | 0.9 | 1.7 | 0.00 | 0.13 | 0.13 | 93 | 1010.1 |
| 20260507043158 | 78 | 0 | 0.0 | 1.7 | 0.00 | 0.12 | 0.12 | 93 | 1009.7 |
| 20260507043019 | 79 | 357 | 0.9 | 1.7 | 0.00 | 0.13 | 0.13 | 93 | 1010.1 |
| 20260507042125 | 78 | 6 | 0.9 | 1.7 | 0.00 | 0.12 | 0.12 | 93 | 1009.9 |
| 20260507042016 | 79 | 12 | 1.7 | 3.5 | 0.00 | 0.13 | 0.13 | 94 | 1010.1 |
| 20260507041052 | 79 | 0 | 0.0 | 1.7 | 0.00 | 0.12 | 0.12 | 93 | 1009.7 |
| 20260507041034 | 79 | 338 | 1.7 | 2.6 | 0.00 | 0.13 | 0.13 | 93 | 1010.0 |
| 20260507040032 | 79 | 24 | 1.7 | 2.6 | 0.00 | 0.13 | 0.13 | 92 | 1009.9 |
| 20260507040019 | 79 | 6 | 0.9 | 0.9 | 0.00 | 0.12 | 0.12 | 93 | 1009.5 |
| 20260507035110 | 80 | 19 | 1.7 | 3.5 | 0.00 | 0.13 | 0.13 | 92 | 1009.8 |
| 20260507034946 | 79 | 11 | 0.9 | 1.7 | 0.00 | 0.12 | 0.12 | 92 | 1009.5 |
| 20260507034047 | 80 | 34 | 1.7 | 2.6 | 0.00 | 0.13 | 0.13 | 92 | 1009.6 |
| 20260507033025 | 80 | 55 | 0.9 | 2.6 | 0.00 | 0.13 | 0.13 | 92 | 1009.5 |
| 20260507032840 | 79 | 0 | 0.0 | 0.9 | 0.00 | 0.12 | 0.12 | 92 | 1009.2 |
| 20260507032022 | 80 | 30 | 0.9 | 1.7 | 0.00 | 0.13 | 0.13 | 92 | 1009.4 |
| 20260507031807 | 79 | 14 | 0.9 | 1.7 | 0.00 | 0.12 | 0.12 | 92 | 1009.0 |
| 20260507031020 | 80 | 4 | 0.9 | 1.7 | 0.00 | 0.13 | 0.13 | 93 | 1009.4 |
| 20260507030607 | 79 | 0 | 0.0 | 1.7 | 0.00 | 0.12 | 0.12 | 93 | 1008.9 |
| 20260507030407 | 79 | 39 | 1.7 | 2.6 | 0.00 | 0.12 | 0.12 | 93 | 1009.0 |
| 20260507030203 | 79 | 0 | 0.0 | 0.9 | 0.00 | 0.12 | 0.12 | 93 | 1008.9 |
| 20260507030038 | 80 | 39 | 0.9 | 2.6 | 0.00 | 0.13 | 0.13 | 93 | 1009.3 |
| 20260507030003 | 79 | 0 | 0.0 | 1.7 | 0.00 | 0.12 | 0.12 | 93 | 1009.1 |
| 20260507024547 | 79 | 3 | 0.9 | 1.7 | 0.00 | 0.12 | 0.12 | 93 | 1009.0 |
| 20260507024518 | 80 | 13 | 0.9 | 2.6 | 0.00 | 0.13 | 0.13 | 92 | 1009.2 |
| 20260507024148 | 79 | 12 | 0.9 | 1.7 | 0.00 | 0.12 | 0.12 | 92 | 1008.8 |
| 20260507023947 | 79 | 343 | 0.9 | 1.7 | 0.00 | 0.12 | 0.12 | 93 | 1008.8 |
| 20260507023535 | 80 | 10 | 0.9 | 2.6 | 0.00 | 0.13 | 0.13 | 92 | 1009.1 |
| 20260507023513 | 79 | 0 | 0.0 | 0.9 | 0.00 | 0.12 | 0.12 | 92 | 1008.8 |
| 20260507022533 | 80 | 354 | 0.9 | 2.6 | 0.00 | 0.13 | 0.13 | 91 | 1009.1 |
| 20260507022440 | 80 | 341 | 1.7 | 1.7 | 0.00 | 0.12 | 0.12 | 91 | 1008.8 |
| 20260507021551 | 80 | 29 | 0.9 | 1.7 | 0.00 | 0.13 | 0.13 | 91 | 1009.1 |
| 20260507021407 | 80 | 49 | 0.9 | 1.7 | 0.00 | 0.12 | 0.12 | 91 | 1008.6 |
| 20260507020528 | 80 | 11 | 0.9 | 1.7 | 0.00 | 0.13 | 0.13 | 91 | 1008.9 |
| 20260507020334 | 80 | 0 | 0.0 | 0.9 | 0.00 | 0.12 | 0.12 | 91 | 1008.7 |
| 20260507015547 | 81 | 3 | 0.9 | 1.7 | 0.00 | 0.13 | 0.13 | 91 | 1008.8 |
| 20260507015301 | 80 | 317 | 0.9 | 0.9 | 0.00 | 0.12 | 0.12 | 91 | 1008.6 |
| 20260507014544 | 81 | 5 | 0.9 | 1.7 | 0.00 | 0.13 | 0.13 | 90 | 1008.7 |
| 20260507014228 | 80 | 41 | 0.9 | 0.9 | 0.00 | 0.12 | 0.12 | 90 | 1008.2 |
| 20260507013521 | 81 | 334 | 0.9 | 2.6 | 0.00 | 0.13 | 0.13 | 90 | 1008.7 |
| 20260507013155 | 80 | 305 | 0.9 | 1.7 | 0.00 | 0.12 | 0.12 | 90 | 1008.3 |
| 20260507012519 | 81 | 6 | 1.7 | 3.5 | 0.00 | 0.13 | 0.13 | 89 | 1008.6 |
| 20260507012122 | 81 | 301 | 1.7 | 2.6 | 0.00 | 0.12 | 0.12 | 89 | 1008.2 |
| 20260507011516 | 81 | 41 | 0.9 | 1.7 | 0.00 | 0.13 | 0.13 | 90 | 1008.6 |
| 20260507011049 | 80 | 341 | 0.9 | 1.7 | 0.00 | 0.12 | 0.12 | 90 | 1008.2 |
| 20260507010535 | 81 | 350 | 0.9 | 1.7 | 0.00 | 0.13 | 0.13 | 89 | 1008.6 |
| 20260507010016 | 80 | 0 | 0.0 | 1.7 | 0.00 | 0.12 | 0.12 | 89 | 1008.2 |
| 20260507005532 | 81 | 1 | 0.9 | 1.7 | 0.00 | 0.13 | 0.13 | 90 | 1008.5 |
| 20260507004550 | 81 | 348 | 0.9 | 2.6 | 0.00 | 0.13 | 0.13 | 89 | 1008.3 |
| 20260507003910 | 81 | 337 | 0.9 | 1.7 | 0.00 | 0.12 | 0.12 | 89 | 1007.9 |
| 20260507003527 | 82 | 342 | 1.7 | 2.6 | 0.00 | 0.13 | 0.13 | 89 | 1008.3 |
| 20260507003110 | 81 | 340 | 1.7 | 1.7 | 0.00 | 0.12 | 0.12 | 89 | 1008.0 |
| 20260507002710 | 81 | 18 | 1.7 | 1.7 | 0.00 | 0.12 | 0.12 | 89 | 1008.0 |
| 20260507002545 | 82 | 0 | 1.7 | 1.7 | 0.00 | 0.13 | 0.13 | 89 | 1008.4 |
| 20260507002510 | 81 | 357 | 1.7 | 1.7 | 0.00 | 0.12 | 0.12 | 89 | 1008.0 |
| 20260507002030 | 82 | 352 | 0.9 | 1.7 | 0.00 | 0.13 | 0.13 | 88 | 1008.3 |
| 20260507001328 | 81 | 313 | 0.9 | 1.7 | 0.00 | 0.12 | 0.12 | 89 | 1007.8 |
| 20260507001028 | 82 | 334 | 1.7 | 3.5 | 0.00 | 0.13 | 0.13 | 89 | 1008.3 |
| 20260507000255 | 82 | 348 | 1.7 | 2.6 | 0.00 | 0.12 | 0.12 | 89 | 1008.0 |
| 20260507000046 | 82 | 359 | 1.7 | 2.6 | 0.00 | 0.13 | 0.13 | 89 | 1008.3 |
| 20260506235222 | 82 | 13 | 0.9 | 0.9 | 0.00 | 0.12 | 0.12 | 89 | 1007.9 |
| 20260506235044 | 83 | 17 | 1.7 | 2.6 | 0.00 | 0.13 | 0.13 | 91 | 1008.3 |
| 20260506234149 | 82 | 0 | 0.0 | 0.9 | 0.00 | 0.12 | 0.12 | 91 | 1007.8 |
| 20260506234021 | 83 | 318 | 0.9 | 2.6 | 0.00 | 0.13 | 0.13 | 91 | 1008.1 |
| 20260506233116 | 83 | 333 | 1.7 | 1.7 | 0.00 | 0.12 | 0.12 | 90 | 1007.8 |
| 20260506233018 | 83 | 356 | 0.9 | 1.7 | 0.00 | 0.13 | 0.13 | 90 | 1008.1 |
| 20260506232056 | 83 | 358 | 1.7 | 2.6 | 0.00 | 0.13 | 0.13 | 91 | 1008.1 |
| 20260506232044 | 83 | 343 | 0.9 | 0.9 | 0.00 | 0.12 | 0.12 | 91 | 1007.6 |
| 20260506231034 | 84 | 349 | 0.9 | 2.6 | 0.00 | 0.13 | 0.13 | 91 | 1008.0 |
| 20260506231010 | 83 | 332 | 0.9 | 0.9 | 0.00 | 0.12 | 0.12 | 91 | 1007.7 |
| 20260506230032 | 83 | 345 | 1.7 | 2.6 | 0.01 | 0.13 | 0.13 | 92 | 1007.7 |
| 20260506225937 | 83 | 327 | 0.9 | 0.9 | 0.01 | 0.12 | 0.12 | 91 | 1007.3 |
| 20260506225029 | 83 | 307 | 0.9 | 1.7 | 0.02 | 0.13 | 0.13 | 92 | 1007.7 |
| 20260506224027 | 83 | 109 | 0.9 | 1.7 | 0.05 | 0.13 | 0.13 | 92 | 1007.7 |
| 20260506223831 | 83 | 0 | 0.0 | 0.9 | 0.05 | 0.12 | 0.12 | 91 | 1007.2 |
| 20260506223105 | 83 | 329 | 1.7 | 3.5 | 0.05 | 0.13 | 0.13 | 92 | 1007.6 |
| 20260506222758 | 82 | 320 | 1.7 | 2.6 | 0.05 | 0.19 | 0.12 | 92 | 1007.3 |
| 20260506222022 | 83 | 152 | 0.9 | 3.5 | 0.05 | 0.52 | 0.13 | 91 | 1007.6 |
| 20260506221725 | 82 | 151 | 1.7 | 1.7 | 0.05 | 1.02 | 0.12 | 91 | 1007.4 |
| 20260506221019 | 84 | 168 | 2.6 | 5.2 | 0.05 | 1.09 | 0.13 | 89 | 1007.4 |
| 20260506220652 | 84 | 174 | 1.7 | 2.6 | 0.04 | 1.11 | 0.12 | 89 | 1007.1 |
| 20260506220017 | 86 | 190 | 2.6 | 5.2 | 0.04 | 1.11 | 0.12 | 87 | 1007.3 |
| 20260506215619 | 86 | 183 | 2.6 | 2.6 | 0.03 | 1.10 | 0.11 | 87 | 1006.9 |
| 20260506215035 | 88 | 188 | 1.7 | 4.3 | 0.04 | 1.10 | 0.11 | 83 | 1007.2 |
| 20260506214546 | 87 | 37 | 0.9 | 1.7 | 0.00 | 1.06 | 0.08 | 82 | 1006.8 |
| 20260506214032 | 88 | 210 | 1.7 | 3.5 | 0.00 | 1.07 | 0.07 | 79 | 1007.3 |
| 20260506213513 | 88 | 180 | 0.9 | 2.6 | 0.00 | 1.06 | 0.07 | 79 | 1006.8 |
| 20260506213030 | 88 | 328 | 0.9 | 3.5 | 0.00 | 1.07 | 0.07 | 79 | 1007.1 |
| 20260506212440 | 88 | 148 | 0.9 | 1.7 | 0.00 | 1.06 | 0.07 | 79 | 1006.7 |
| 20260506212028 | 88 | 147 | 0.9 | 2.6 | 0.00 | 1.07 | 0.07 | 81 | 1007.1 |
| 20260506211407 | 87 | 211 | 0.9 | 0.9 | 0.00 | 1.06 | 0.07 | 81 | 1006.9 |
| 20260506211025 | 87 | 169 | 0.9 | 2.6 | 0.00 | 1.07 | 0.07 | 83 | 1007.0 |
| 20260506210334 | 86 | 179 | 0.9 | 1.7 | 0.00 | 1.06 | 0.07 | 85 | 1006.9 |
| 20260506210023 | 86 | 169 | 1.7 | 2.6 | 0.00 | 1.07 | 0.07 | 85 | 1007.3 |
| 20260506205301 | 86 | 168 | 0.9 | 1.7 | 0.02 | 1.06 | 0.07 | 86 | 1007.1 |
| 20260506205020 | 86 | 207 | 0.9 | 2.6 | 0.03 | 1.07 | 0.07 | 87 | 1007.5 |
| 20260506204228 | 85 | 196 | 0.9 | 1.7 | 0.02 | 1.06 | 0.07 | 87 | 1007.1 |
| 20260506204019 | 85 | 211 | 1.7 | 3.5 | 0.03 | 1.07 | 0.07 | 88 | 1007.5 |
| 20260506203036 | 85 | 201 | 1.7 | 4.3 | 0.03 | 1.07 | 0.07 | 88 | 1007.5 |
| 20260506202122 | 85 | 239 | 1.7 | 3.5 | 0.02 | 1.06 | 0.07 | 88 | 1007.3 |
| 20260506202033 | 85 | 215 | 2.6 | 3.5 | 0.03 | 1.07 | 0.07 | 87 | 1007.6 |
| 20260506201049 | 85 | 207 | 3.5 | 4.3 | 0.03 | 1.06 | 0.07 | 87 | 1007.2 |
| 20260506201031 | 85 | 207 | 2.6 | 5.2 | 0.04 | 1.07 | 0.07 | 87 | 1007.6 |
| 20260506200028 | 85 | 185 | 1.7 | 3.5 | 0.06 | 1.06 | 0.07 | 87 | 1007.6 |
| 20260506200015 | 85 | 192 | 1.7 | 1.7 | 0.05 | 1.05 | 0.07 | 87 | 1007.4 |
| 20260506195046 | 85 | 216 | 3.5 | 6.1 | 0.05 | 1.04 | 0.05 | 86 | 1007.7 |
| 20260506194943 | 85 | 180 | 1.7 | 3.5 | 0.04 | 1.03 | 0.04 | 86 | 1007.2 |
| 20260506194024 | 85 | 256 | 1.7 | 5.2 | 0.05 | 1.04 | 0.05 | 84 | 1007.6 |
| 20260506193910 | 85 | 250 | 0.9 | 2.6 | 0.04 | 1.03 | 0.04 | 84 | 1007.2 |
| 20260506193021 | 86 | 211 | 2.6 | 5.2 | 0.05 | 1.04 | 0.05 | 82 | 1007.8 |
| 20260506192837 | 86 | 211 | 2.6 | 3.5 | 0.04 | 1.03 | 0.04 | 82 | 1007.5 |
| 20260506192018 | 89 | 214 | 1.7 | 3.5 | 0.05 | 1.04 | 0.05 | 80 | 1007.9 |
| 20260506191804 | 88 | 232 | 1.7 | 1.7 | 0.04 | 1.03 | 0.04 | 81 | 1007.4 |
| 20260506191017 | 90 | 122 | 0.9 | 2.6 | 0.04 | 1.03 | 0.04 | 77 | 1007.8 |
| 20260506190731 | 89 | 0 | 0.0 | 0.9 | 0.01 | 1.01 | 0.03 | 76 | 1007.4 |
| 20260506190034 | 91 | 340 | 1.7 | 4.3 | 0.01 | 1.00 | 0.01 | 73 | 1007.9 |
| 20260506185658 | 90 | 56 | 1.7 | 3.5 | 0.00 | 0.99 | 0.00 | 72 | 1007.4 |
| 20260506185032 | 91 | 326 | 1.7 | 4.3 | 0.00 | 0.99 | 0.00 | 71 | 1008.1 |
| 20260506184625 | 91 | 26 | 0.9 | 2.6 | 0.00 | 0.99 | 0.00 | 71 | 1007.7 |
| 20260506184029 | 91 | 273 | 0.9 | 2.6 | 0.00 | 0.99 | 0.00 | 72 | 1008.3 |
| 20260506183552 | 91 | 0 | 0.0 | 1.7 | 0.00 | 0.99 | 0.00 | 73 | 1008.0 |
| 20260506183027 | 90 | 216 | 0.9 | 3.5 | 0.00 | 1.00 | 0.00 | 73 | 1008.5 |
| 20260506182519 | 90 | 218 | 1.7 | 2.6 | 0.00 | 1.03 | 0.00 | 73 | 1008.3 |
| 20260506182024 | 90 | 229 | 1.7 | 4.3 | 0.00 | 1.03 | 0.00 | 72 | 1008.7 |
| 20260506181446 | 90 | 220 | 0.9 | 1.7 | 0.00 | 1.17 | 0.00 | 71 | 1008.3 |
| 20260506181022 | 90 | 213 | 1.7 | 3.5 | 0.00 | 1.17 | 0.00 | 70 | 1008.8 |
| 20260506180646 | 90 | 201 | 2.6 | 3.5 | 0.00 | 1.21 | 0.00 | 71 | 1008.5 |
| 20260506180246 | 90 | 279 | 1.7 | 1.7 | 0.00 | 1.27 | 0.00 | 71 | 1008.4 |
| 20260506180046 | 90 | 266 | 0.9 | 0.9 | 0.00 | 1.35 | 0.00 | 70 | 1008.4 |
| 20260506180020 | 90 | 292 | 1.7 | 1.7 | 0.00 | 1.27 | 0.00 | 71 | 1008.8 |
| 20260506175018 | 91 | 148 | 2.6 | 7.0 | 0.00 | 1.41 | 0.00 | 70 | 1008.9 |
| 20260506174309 | 91 | 118 | 1.7 | 2.6 | 0.00 | 1.42 | 0.00 | 69 | 1008.7 |
| 20260506174016 | 91 | 143 | 2.6 | 5.2 | 0.00 | 1.42 | 0.00 | 69 | 1009.1 |
| 20260506173236 | 91 | 205 | 0.9 | 2.6 | 0.00 | 1.42 | 0.00 | 69 | 1008.7 |
| 20260506173035 | 91 | 187 | 2.6 | 7.8 | 0.00 | 1.42 | 0.00 | 70 | 1009.2 |